Location: Unspecified
(0.0000°N, 0.0000°E)
Time: 05:43:59
(UTC+00:00)

N. Korean satellite - Pass Details

Date: 13 May 2021
Orbit: 450 x 501 km, 97.2° (Epoch: 16 May)

Event Time Altitude Azimuth Distance (km) Brightness Sun altitude
Rises 04:48:06 0° 17° (NNE) 2,440 10.7 -16.2°
Reaches altitude 10° 04:50:08 10° 21° (NNE) 1,574 9.7 -15.7°
Maximum altitude 04:53:27 58° 101° (E) 533 7.0 -14.9°
Drops below altitude 10° 04:56:49 10° 181° (S) 1,598 9.0 -14.1°
Sets 04:58:54 0° 185° (S) 2,482 9.9 -13.6°
